Time,TemperatureF,DewpointF,PressureIn,WindDirection,WindDirectionDegrees,WindSpeedMPH,WindSpeedGustMPH,Humidity,HourlyPrecipIn,Conditions,Clouds,dailyrainin,SoftwareType,DateUTC
2013-05-29 00:00:00,47.5,47.2,29.81,SSE,158,1.6,4.5,99,0.00,,,0.00,pywws,2013-05-28 23:00:00,
2013-05-29 00:05:00,47.7,47.4,29.81,South,180,0.7,3.1,99,0.00,,,0.00,pywws,2013-05-28 23:05:00,
2013-05-29 00:10:00,47.5,47.2,29.81,South,180,1.6,3.8,99,0.00,,,0.00,pywws,2013-05-28 23:10:00,
2013-05-29 00:15:00,47.5,47.2,29.82,East,90,0.7,2.2,99,0.00,,,0.00,pywws,2013-05-28 23:15:00,
2013-05-29 00:20:00,47.5,47.2,29.82,North,-999,0.0,1.6,99,0.00,,,0.00,pywws,2013-05-28 23:20:00,
2013-05-29 00:25:00,47.5,47.2,29.82,East,90,3.8,6.9,99,0.00,,,0.00,pywws,2013-05-28 23:25:00,
2013-05-29 00:30:00,47.5,47.2,29.82,SW,225,0.7,2.2,99,0.00,,,0.00,pywws,2013-05-28 23:30:00,
2013-05-29 00:35:00,47.5,47.2,29.81,East,90,1.6,3.8,99,0.00,,,0.00,pywws,2013-05-28 23:35:00,
2013-05-29 00:40:00,47.7,47.4,29.81,East,90,0.7,3.8,99,0.00,,,0.00,pywws,2013-05-28 23:40:00,
2013-05-29 00:45:00,47.7,47.4,29.82,South,180,2.2,5.4,99,0.00,,,0.00,pywws,2013-05-28 23:45:00,
2013-05-29 00:50:00,47.7,47.4,29.82,SE,135,3.1,4.5,99,0.00,,,0.00,pywws,2013-05-28 23:50:00,
2013-05-29 01:00:00,47.7,47.4,29.82,South,180,0.7,3.1,99,0.00,,,0.00,pywws,2013-05-29 00:00:00,
2013-05-29 01:05:00,47.8,47.6,29.83,NE,45,3.1,5.4,99,0.00,,,0.00,pywws,2013-05-29 00:05:00,
2013-05-29 01:10:00,47.8,47.6,29.83,SE,135,1.6,4.5,99,0.00,,,0.00,pywws,2013-05-29 00:10:00,
2013-05-29 01:15:00,47.8,47.6,29.83,SW,225,2.2,6.0,99,0.00,,,0.00,pywws,2013-05-29 00:15:00,
2013-05-29 01:20:00,47.8,47.6,29.82,NE,45,1.6,4.5,99,0.00,,,0.00,pywws,2013-05-29 00:20:00,
2013-05-29 01:25:00,47.7,47.4,29.83,SW,225,1.6,3.8,99,0.00,,,0.00,pywws,2013-05-29 00:25:00,
2013-05-29 01:30:00,47.7,47.4,29.83,East,90,0.7,1.6,99,0.00,,,0.00,pywws,2013-05-29 00:30:00,
2013-05-29 01:35:00,47.7,47.4,29.83,North,0,3.8,6.0,99,0.00,,,0.00,pywws,2013-05-29 00:35:00,
2013-05-29 01:40:00,47.7,47.4,29.83,SW,225,0.7,3.1,99,0.00,,,0.00,pywws,2013-05-29 00:40:00,
2013-05-29 01:45:00,47.7,47.4,29.83,SW,225,1.6,3.8,99,0.00,,,0.00,pywws,2013-05-29 00:45:00,
2013-05-29 01:50:00,47.8,47.6,29.83,South,180,2.2,6.0,99,0.00,,,0.00,pywws,2013-05-29 00:50:00,
2013-05-29 02:00:00,47.8,47.6,29.83,SE,135,1.6,3.8,99,0.00,,,0.00,pywws,2013-05-29 01:00:00,
2013-05-29 02:05:00,47.8,47.6,29.83,East,90,1.6,3.8,99,0.00,,,0.00,pywws,2013-05-29 01:05:00,
2013-05-29 02:10:00,47.7,47.4,29.83,West,270,2.2,5.4,99,0.00,,,0.00,pywws,2013-05-29 01:10:00,
2013-05-29 02:15:00,47.5,47.2,29.83,East,90,1.6,4.5,99,0.00,,,0.00,pywws,2013-05-29 01:15:00,
2013-05-29 02:20:00,47.5,47.2,29.83,South,180,1.6,3.8,99,0.00,,,0.00,pywws,2013-05-29 01:20:00,
2013-05-29 02:25:00,47.5,47.2,29.83,East,90,1.6,4.5,99,0.00,,,0.00,pywws,2013-05-29 01:25:00,
2013-05-29 02:30:00,47.3,47.0,29.83,NE,45,0.7,3.1,99,0.00,,,0.00,pywws,2013-05-29 01:30:00,
2013-05-29 02:35:00,47.1,46.9,29.83,SSE,158,1.6,6.0,99,0.00,,,0.00,pywws,2013-05-29 01:35:00,
2013-05-29 02:40:00,46.9,46.7,29.83,WNW,292,1.6,4.5,99,0.00,,,0.00,pywws,2013-05-29 01:40:00,
2013-05-29 02:45:00,46.9,46.7,29.83,SE,135,3.1,7.6,99,0.00,,,0.00,pywws,2013-05-29 01:45:00,
2013-05-29 02:50:00,46.8,46.5,29.83,East,90,1.6,3.1,99,0.00,,,0.00,pywws,2013-05-29 01:50:00,
2013-05-29 03:00:00,46.8,46.5,29.83,SW,225,2.2,4.5,99,0.00,,,0.00,pywws,2013-05-29 02:00:00,
2013-05-29 03:05:00,46.8,46.5,29.84,North,-999,0.0,1.6,99,0.00,,,0.00,pywws,2013-05-29 02:05:00,
2013-05-29 03:10:00,46.8,46.5,29.83,SE,135,0.7,2.2,99,0.00,,,0.00,pywws,2013-05-29 02:10:00,
2013-05-29 03:15:00,46.8,46.5,29.83,NW,315,1.6,3.1,99,0.00,,,0.00,pywws,2013-05-29 02:15:00,
2013-05-29 03:20:00,46.8,46.5,29.83,NE,45,1.6,3.8,99,0.00,,,0.00,pywws,2013-05-29 02:20:00,
2013-05-29 03:25:00,46.9,46.7,29.84,SE,135,1.6,3.8,99,0.00,,,0.00,pywws,2013-05-29 02:25:00,
2013-05-29 03:30:00,47.1,46.9,29.83,SE,135,1.6,3.1,99,0.00,,,0.00,pywws,2013-05-29 02:30:00,
2013-05-29 03:35:00,47.3,47.0,29.84,SE,135,1.6,3.1,99,0.00,,,0.00,pywws,2013-05-29 02:35:00,
2013-05-29 03:40:00,47.3,47.0,29.83,South,180,0.7,2.2,99,0.00,,,0.00,pywws,2013-05-29 02:40:00,
2013-05-29 03:45:00,47.5,47.2,29.83,South,180,1.6,3.1,99,0.00,,,0.00,pywws,2013-05-29 02:45:00,
2013-05-29 03:50:00,47.5,47.2,29.84,NW,315,0.7,2.2,99,0.00,,,0.00,pywws,2013-05-29 02:50:00,
2013-05-29 04:00:00,47.7,47.4,29.84,East,90,1.6,3.8,99,0.00,,,0.00,pywws,2013-05-29 03:00:00,
2013-05-29 04:05:00,47.7,47.4,29.84,South,180,1.6,5.4,99,0.00,,,0.00,pywws,2013-05-29 03:05:00,
2013-05-29 04:10:00,47.8,47.6,29.84,South,180,1.6,3.1,99,0.00,,,0.00,pywws,2013-05-29 03:10:00,
2013-05-29 04:15:00,47.8,47.6,29.84,SW,225,2.2,3.8,99,0.00,,,0.00,pywws,2013-05-29 03:15:00,
2013-05-29 04:20:00,47.7,47.4,29.84,SE,135,1.6,3.1,99,0.00,,,0.00,pywws,2013-05-29 03:20:00,
2013-05-29 04:25:00,47.7,47.4,29.84,SE,135,0.7,3.1,99,0.00,,,0.00,pywws,2013-05-29 03:25:00,
2013-05-29 04:30:00,47.7,47.4,29.84,East,90,1.6,3.8,99,0.00,,,0.00,pywws,2013-05-29 03:30:00,
2013-05-29 04:35:00,47.7,47.4,29.84,East,90,0.7,2.2,99,0.00,,,0.00,pywws,2013-05-29 03:35:00,
2013-05-29 04:40:00,47.8,47.6,29.84,SE,135,1.6,2.2,99,0.00,,,0.00,pywws,2013-05-29 03:40:00,
2013-05-29 04:45:00,47.8,47.6,29.84,North,-999,0.0,1.6,99,0.00,,,0.00,pywws,2013-05-29 03:45:00,
2013-05-29 04:50:00,47.8,47.6,29.84,SSE,158,1.6,3.1,99,0.00,,,0.00,pywws,2013-05-29 03:50:00,
2013-05-29 05:00:00,47.8,47.6,29.85,East,90,0.7,3.1,99,0.00,,,0.00,pywws,2013-05-29 04:00:00,
2013-05-29 05:05:00,47.8,47.6,29.85,West,270,0.7,3.8,99,0.00,,,0.00,pywws,2013-05-29 04:05:00,
2013-05-29 05:10:00,47.8,47.6,29.85,SE,135,1.6,3.8,99,0.00,,,0.00,pywws,2013-05-29 04:10:00,
2013-05-29 05:15:00,47.8,47.6,29.85,East,90,1.6,4.5,99,0.00,,,0.00,pywws,2013-05-29 04:15:00,
2013-05-29 05:20:00,47.8,47.6,29.85,North,-999,0.0,2.2,99,0.00,,,0.00,pywws,2013-05-29 04:20:00,
2013-05-29 05:25:00,48.0,47.8,29.85,North,-999,0.0,1.6,99,0.00,,,0.00,pywws,2013-05-29 04:25:00,
2013-05-29 05:30:00,48.0,47.8,29.85,North,-999,0.0,0.7,99,0.00,,,0.00,pywws,2013-05-29 04:30:00,
2013-05-29 05:35:00,46.2,46.0,29.85,North,-999,0.0,1.6,99,0.00,,,0.00,pywws,2013-05-29 04:35:00,
2013-05-29 05:40:00,48.0,47.8,29.85,North,-999,0.0,0.7,99,0.00,,,0.00,pywws,2013-05-29 04:40:00,
2013-05-29 05:45:00,47.8,47.6,29.85,North,-999,0.0,1.6,99,0.00,,,0.00,pywws,2013-05-29 04:45:00,
2013-05-29 05:50:00,47.8,47.6,29.85,North,-999,0.0,0.7,99,0.00,,,0.00,pywws,2013-05-29 04:50:00,
2013-05-29 06:00:00,48.0,47.8,29.85,North,-999,0.0,0.0,99,0.00,,,0.00,pywws,2013-05-29 05:00:00,
2013-05-29 06:05:00,48.0,47.8,29.85,North,-999,0.0,0.0,99,0.00,,,0.00,pywws,2013-05-29 05:05:00,
2013-05-29 06:10:00,48.0,47.8,29.85,North,-999,0.0,0.0,99,0.00,,,0.00,pywws,2013-05-29 05:10:00,
2013-05-29 06:15:00,48.0,47.8,29.85,North,-999,0.0,0.0,99,0.00,,,0.00,pywws,2013-05-29 05:15:00,
2013-05-29 06:20:00,48.0,47.8,29.85,North,-999,0.0,0.0,99,0.00,,,0.00,pywws,2013-05-29 05:20:00,
2013-05-29 06:25:00,48.2,47.9,29.85,North,-999,0.0,0.7,99,0.00,,,0.00,pywws,2013-05-29 05:25:00,
2013-05-29 06:30:00,48.2,47.9,29.85,North,-999,0.0,0.7,99,0.00,,,0.00,pywws,2013-05-29 05:30:00,
2013-05-29 06:35:00,48.6,48.3,29.85,North,-999,0.0,0.0,99,0.00,,,0.00,pywws,2013-05-29 05:35:00,
2013-05-29 06:40:00,48.6,48.3,29.85,North,-999,0.0,0.0,99,0.00,,,0.00,pywws,2013-05-29 05:40:00,
2013-05-29 06:45:00,48.7,48.5,29.85,North,-999,0.0,0.0,99,0.00,,,0.00,pywws,2013-05-29 05:45:00,
2013-05-29 06:50:00,48.7,48.5,29.85,North,-999,0.0,0.0,99,0.00,,,0.00,pywws,2013-05-29 05:50:00,
2013-05-29 07:00:00,48.7,48.5,29.85,North,-999,0.0,0.0,99,0.00,,,0.00,pywws,2013-05-29 06:00:00,
2013-05-29 07:05:00,48.7,48.5,29.85,North,-999,0.0,0.0,99,0.00,,,0.00,pywws,2013-05-29 06:05:00,
2013-05-29 07:10:00,48.7,48.5,29.85,North,-999,0.0,0.0,99,0.00,,,0.00,pywws,2013-05-29 06:10:00,
2013-05-29 07:15:00,48.7,48.5,29.85,North,-999,0.0,0.7,99,0.00,,,0.00,pywws,2013-05-29 06:15:00,
2013-05-29 07:20:00,48.7,48.5,29.85,North,-999,0.0,0.0,99,0.00,,,0.00,pywws,2013-05-29 06:20:00,
2013-05-29 07:25:00,48.7,48.5,29.85,North,-999,0.0,0.0,99,0.00,,,0.00,pywws,2013-05-29 06:25:00,
2013-05-29 07:30:00,48.9,48.7,29.85,North,-999,0.0,0.0,99,0.00,,,0.00,pywws,2013-05-29 06:30:00,
2013-05-29 07:35:00,48.9,48.7,29.85,North,-999,0.0,0.0,99,0.00,,,0.00,pywws,2013-05-29 06:35:00,
2013-05-29 07:40:00,48.9,48.7,29.85,North,-999,0.0,0.0,99,0.00,,,0.00,pywws,2013-05-29 06:40:00,
2013-05-29 07:45:00,49.1,48.8,29.86,North,-999,0.0,0.0,99,0.00,,,0.00,pywws,2013-05-29 06:45:00,
2013-05-29 07:50:00,49.1,48.8,29.85,North,-999,0.0,0.7,99,0.00,,,0.00,pywws,2013-05-29 06:50:00,
2013-05-29 08:00:00,49.3,49.0,29.86,North,-999,0.0,0.0,99,0.00,,,0.00,pywws,2013-05-29 07:00:00,
2013-05-29 08:05:00,49.6,49.1,29.86,North,-999,0.0,0.7,98,0.00,,,0.00,pywws,2013-05-29 07:05:00,
2013-05-29 08:10:00,50.0,49.5,29.86,North,-999,0.0,0.0,98,0.00,,,0.00,pywws,2013-05-29 07:10:00,
2013-05-29 08:15:00,50.4,49.8,29.86,North,-999,0.0,2.2,98,0.00,,,0.00,pywws,2013-05-29 07:15:00,
2013-05-29 08:20:00,50.9,50.1,29.86,North,-999,0.0,2.2,97,0.00,,,0.00,pywws,2013-05-29 07:20:00,
2013-05-29 08:25:00,51.3,50.2,29.86,North,-999,0.0,0.0,96,0.00,,,0.00,pywws,2013-05-29 07:25:00,
2013-05-29 08:30:00,52.0,50.9,29.86,North,-999,0.0,0.0,96,0.00,,,0.00,pywws,2013-05-29 07:30:00,
2013-05-29 08:35:00,52.7,51.3,29.86,North,-999,0.0,0.7,95,0.00,,,0.00,pywws,2013-05-29 07:35:00,
2013-05-29 08:40:00,53.4,51.7,29.85,North,-999,0.0,0.7,94,0.00,,,0.00,pywws,2013-05-29 07:40:00,
2013-05-29 08:45:00,54.1,52.2,29.86,North,-999,0.0,0.7,93,0.00,,,0.00,pywws,2013-05-29 07:45:00,
2013-05-29 08:50:00,55.0,52.5,29.86,North,-999,0.0,0.7,91,0.00,,,0.00,pywws,2013-05-29 07:50:00,
2013-05-29 09:00:00,55.9,52.7,29.85,North,-999,0.0,0.0,89,0.00,,,0.00,pywws,2013-05-29 08:00:00,
2013-05-29 09:05:00,57.0,52.6,29.86,North,-999,0.0,0.7,85,0.00,,,0.00,pywws,2013-05-29 08:05:00,
2013-05-29 09:10:00,57.0,52.2,29.86,North,-999,0.0,0.7,84,0.00,,,0.00,pywws,2013-05-29 08:10:00,
2013-05-29 09:15:00,56.7,51.6,29.86,North,-999,0.0,0.0,83,0.00,,,0.00,pywws,2013-05-29 08:15:00,
2013-05-29 09:20:00,56.7,51.9,29.86,North,-999,0.0,0.7,84,0.00,,,0.00,pywws,2013-05-29 08:20:00,
2013-05-29 09:25:00,56.5,50.7,29.86,North,-999,0.0,1.6,81,0.00,,,0.00,pywws,2013-05-29 08:25:00,
2013-05-29 09:30:00,56.7,50.9,29.86,North,-999,0.0,1.6,81,0.00,,,0.00,pywws,2013-05-29 08:30:00,
2013-05-29 09:35:00,57.2,51.4,29.85,North,-999,0.0,1.6,81,0.00,,,0.00,pywws,2013-05-29 08:35:00,
2013-05-29 09:40:00,57.7,49.5,29.86,SSE,158,1.6,3.1,74,0.00,,,0.00,pywws,2013-05-29 08:40:00,
2013-05-29 09:45:00,58.1,50.9,29.85,North,-999,0.0,0.7,77,0.00,,,0.00,pywws,2013-05-29 08:45:00,
2013-05-29 09:50:00,58.8,52.0,29.85,North,-999,0.0,0.7,78,0.00,,,0.00,pywws,2013-05-29 08:50:00,
2013-05-29 10:00:00,59.0,52.1,29.86,North,-999,0.0,1.6,78,0.00,,,0.00,pywws,2013-05-29 09:00:00,
2013-05-29 10:05:00,59.2,52.3,29.85,North,-999,0.0,0.7,78,0.00,,,0.00,pywws,2013-05-29 09:05:00,
2013-05-29 10:10:00,59.5,53.0,29.86,North,-999,0.0,0.0,79,0.00,,,0.00,pywws,2013-05-29 09:10:00,
2013-05-29 10:15:00,60.1,51.4,29.86,SW,225,0.7,2.2,73,0.00,,,0.00,pywws,2013-05-29 09:15:00,
2013-05-29 10:20:00,59.9,50.8,29.86,North,-999,0.0,0.7,72,0.00,,,0.00,pywws,2013-05-29 09:20:00,
2013-05-29 10:25:00,59.9,51.6,29.86,North,-999,0.0,0.7,74,0.00,,,0.00,pywws,2013-05-29 09:25:00,
2013-05-29 10:30:00,59.5,51.6,29.86,North,-999,0.0,0.7,75,0.00,,,0.00,pywws,2013-05-29 09:30:00,
2013-05-29 10:35:00,59.7,52.5,29.87,North,-999,0.0,0.0,77,0.00,,,0.00,pywws,2013-05-29 09:35:00,
2013-05-29 10:40:00,59.4,51.8,29.87,North,-999,0.0,0.7,76,0.00,,,0.00,pywws,2013-05-29 09:40:00,
2013-05-29 10:45:00,59.2,50.9,29.87,SSE,158,0.7,2.2,74,0.00,,,0.00,pywws,2013-05-29 09:45:00,
2013-05-29 10:50:00,58.8,51.3,29.87,North,-999,0.0,0.0,76,0.00,,,0.00,pywws,2013-05-29 09:50:00,
2013-05-29 11:00:00,58.5,50.9,29.87,North,-999,0.0,0.0,76,0.00,,,0.00,pywws,2013-05-29 10:00:00,
2013-05-29 11:05:00,58.5,51.6,29.86,North,-999,0.0,0.0,78,0.00,,,0.00,pywws,2013-05-29 10:05:00,
2013-05-29 11:10:00,59.2,52.7,29.87,North,-999,0.0,1.6,79,0.00,,,0.00,pywws,2013-05-29 10:10:00,
2013-05-29 11:15:00,60.1,51.4,29.86,South,180,0.7,3.1,73,0.00,,,0.00,pywws,2013-05-29 10:15:00,
2013-05-29 11:20:00,60.6,50.4,29.87,SE,135,1.6,2.2,69,0.00,,,0.00,pywws,2013-05-29 10:20:00,
2013-05-29 11:25:00,61.2,50.5,29.87,SE,135,1.6,3.8,68,0.00,,,0.00,pywws,2013-05-29 10:25:00,
2013-05-29 11:30:00,61.9,51.6,29.87,North,-999,0.0,2.2,69,0.00,,,0.00,pywws,2013-05-29 10:30:00,
2013-05-29 11:35:00,62.1,50.2,29.87,SE,135,0.7,3.1,65,0.00,,,0.00,pywws,2013-05-29 10:35:00,
2013-05-29 11:40:00,61.2,49.7,29.87,East,90,1.6,3.8,66,0.00,,,0.00,pywws,2013-05-29 10:40:00,
2013-05-29 11:45:00,60.4,49.8,29.87,SE,135,0.7,2.2,68,0.00,,,0.00,pywws,2013-05-29 10:45:00,
2013-05-29 11:50:00,60.3,49.7,29.87,SE,135,1.6,5.4,68,0.00,,,0.00,pywws,2013-05-29 10:50:00,
2013-05-29 12:00:00,59.9,50.1,29.87,East,90,0.7,3.1,70,0.00,,,0.00,pywws,2013-05-29 11:00:00,
2013-05-29 12:05:00,59.7,50.7,29.88,SE,135,1.6,3.8,72,0.00,,,0.00,pywws,2013-05-29 11:05:00,
2013-05-29 12:10:00,59.4,51.8,29.88,East,90,1.6,3.8,76,0.00,,,0.00,pywws,2013-05-29 11:10:00,
2013-05-29 12:15:00,58.5,51.6,29.88,SW,225,0.7,2.2,78,0.00,,,0.00,pywws,2013-05-29 11:15:00,
2013-05-29 12:20:00,57.9,51.4,29.88,North,-999,0.0,1.6,79,0.00,,,0.00,pywws,2013-05-29 11:20:00,
2013-05-29 12:25:00,57.7,51.9,29.88,North,-999,0.0,0.7,81,0.00,,,0.00,pywws,2013-05-29 11:25:00,
2013-05-29 12:30:00,57.6,52.1,29.87,North,-999,0.0,0.0,82,0.00,,,0.00,pywws,2013-05-29 11:30:00,
2013-05-29 12:35:00,57.4,52.3,29.87,North,-999,0.0,1.6,83,0.00,,,0.00,pywws,2013-05-29 11:35:00,
2013-05-29 12:40:00,57.2,52.1,29.88,North,-999,0.0,1.6,83,0.00,,,0.00,pywws,2013-05-29 11:40:00,
2013-05-29 12:45:00,57.4,52.6,29.88,North,-999,0.0,0.7,84,0.00,,,0.00,pywws,2013-05-29 11:45:00,
2013-05-29 12:50:00,57.4,52.9,29.88,North,-999,0.0,1.6,85,0.00,,,0.00,pywws,2013-05-29 11:50:00,
2013-05-29 13:00:00,57.2,52.7,29.88,North,-999,0.0,1.6,85,0.00,,,0.00,pywws,2013-05-29 12:00:00,
2013-05-29 13:05:00,57.6,53.1,29.88,North,-999,0.0,0.0,85,0.00,,,0.00,pywws,2013-05-29 12:05:00,
2013-05-29 13:10:00,58.1,53.6,29.88,North,-999,0.0,0.0,85,0.00,,,0.00,pywws,2013-05-29 12:10:00,
2013-05-29 13:15:00,58.8,53.7,29.88,North,-999,0.0,0.7,83,0.00,,,0.00,pywws,2013-05-29 12:15:00,
2013-05-29 13:20:00,59.2,53.7,29.88,North,-999,0.0,0.0,82,0.00,,,0.00,pywws,2013-05-29 12:20:00,
2013-05-29 13:25:00,59.4,53.9,29.89,North,-999,0.0,0.0,82,0.00,,,0.00,pywws,2013-05-29 12:25:00,
2013-05-29 13:30:00,59.7,53.5,29.88,North,-999,0.0,0.0,80,0.00,,,0.00,pywws,2013-05-29 12:30:00,
2013-05-29 13:35:00,59.9,53.0,29.89,North,-999,0.0,0.7,78,0.00,,,0.00,pywws,2013-05-29 12:35:00,
2013-05-29 13:40:00,60.3,53.0,29.88,NE,45,0.7,1.6,77,0.00,,,0.00,pywws,2013-05-29 12:40:00,
2013-05-29 13:45:00,60.1,53.2,29.88,North,-999,0.0,2.2,78,0.00,,,0.00,pywws,2013-05-29 12:45:00,
2013-05-29 13:50:00,60.1,53.5,29.89,NE,45,0.7,1.6,79,0.00,,,0.00,pywws,2013-05-29 12:50:00,
2013-05-29 14:00:00,60.1,53.2,29.88,North,-999,0.0,0.0,78,0.00,,,0.00,pywws,2013-05-29 13:00:00,
2013-05-29 14:05:00,60.4,53.5,29.89,North,-999,0.0,0.7,78,0.00,,,0.00,pywws,2013-05-29 13:05:00,
2013-05-29 14:10:00,60.4,52.8,29.89,North,-999,0.0,2.2,76,0.00,,,0.00,pywws,2013-05-29 13:10:00,
2013-05-29 14:15:00,60.1,52.8,29.89,North,-999,0.0,0.0,77,0.00,,,0.00,pywws,2013-05-29 13:15:00,
2013-05-29 14:20:00,59.5,53.4,29.89,North,-999,0.0,0.0,80,0.00,,,0.00,pywws,2013-05-29 13:20:00,
2013-05-29 14:25:00,59.2,53.4,29.89,North,-999,0.0,0.0,81,0.00,,,0.00,pywws,2013-05-29 13:25:00,
2013-05-29 14:30:00,59.0,53.2,29.89,SE,135,0.7,2.2,81,0.00,,,0.00,pywws,2013-05-29 13:30:00,
2013-05-29 14:35:00,59.2,53.4,29.90,North,-999,0.0,0.0,81,0.00,,,0.00,pywws,2013-05-29 13:35:00,
2013-05-29 14:40:00,59.2,53.4,29.90,North,-999,0.0,0.7,81,0.00,,,0.00,pywws,2013-05-29 13:40:00,
2013-05-29 14:45:00,59.0,53.5,29.89,North,-999,0.0,0.7,82,0.00,,,0.00,pywws,2013-05-29 13:45:00,
2013-05-29 14:50:00,58.5,53.3,29.89,North,-999,0.0,0.7,83,0.00,,,0.00,pywws,2013-05-29 13:50:00,
2013-05-29 15:00:00,58.5,54.0,29.89,North,-999,0.0,0.0,85,0.00,,,0.00,pywws,2013-05-29 14:00:00,
2013-05-29 15:05:00,58.6,55.1,29.89,North,-999,0.0,0.0,88,0.00,,,0.00,pywws,2013-05-29 14:05:00,
2013-05-29 15:10:00,58.8,55.6,29.89,North,-999,0.0,0.0,89,0.00,,,0.00,pywws,2013-05-29 14:10:00,
2013-05-29 15:15:00,59.2,55.9,29.90,North,-999,0.0,0.0,89,0.00,,,0.00,pywws,2013-05-29 14:15:00,
2013-05-29 15:20:00,58.8,55.6,29.90,North,-999,0.0,0.0,89,0.00,,,0.00,pywws,2013-05-29 14:20:00,
2013-05-29 15:25:00,59.2,56.2,29.90,North,-999,0.0,0.7,90,0.00,,,0.00,pywws,2013-05-29 14:25:00,
2013-05-29 15:30:00,59.2,56.2,29.90,North,-999,0.0,0.0,90,0.00,,,0.00,pywws,2013-05-29 14:30:00,
2013-05-29 15:35:00,59.0,56.1,29.90,North,0,0.7,1.6,90,0.00,,,0.00,pywws,2013-05-29 14:35:00,
2013-05-29 15:40:00,58.5,55.8,29.90,North,-999,0.0,0.0,91,0.00,,,0.00,pywws,2013-05-29 14:40:00,
2013-05-29 15:45:00,57.9,55.6,29.90,North,-999,0.0,0.0,92,0.00,,,0.00,pywws,2013-05-29 14:45:00,
2013-05-29 15:50:00,57.6,55.8,29.90,North,-999,0.0,0.0,94,0.00,,,0.00,pywws,2013-05-29 14:50:00,
2013-05-29 16:00:00,57.9,56.8,29.90,North,-999,0.0,0.0,96,0.00,,,0.00,pywws,2013-05-29 15:00:00,
2013-05-29 16:05:00,59.2,58.6,29.90,North,-999,0.0,0.0,98,0.00,,,0.00,pywws,2013-05-29 15:05:00,
2013-05-29 16:10:00,59.4,58.8,29.90,North,-999,0.0,0.0,98,0.00,,,0.00,pywws,2013-05-29 15:10:00,
2013-05-29 16:15:00,59.7,59.4,29.90,North,-999,0.0,0.0,99,0.00,,,0.00,pywws,2013-05-29 15:15:00,
2013-05-29 16:20:00,60.3,59.7,29.90,North,-999,0.0,0.0,98,0.00,,,0.00,pywws,2013-05-29 15:20:00,
2013-05-29 16:25:00,60.3,59.4,29.90,North,-999,0.0,0.0,97,0.00,,,0.00,pywws,2013-05-29 15:25:00,
2013-05-29 16:30:00,60.4,59.6,29.90,North,-999,0.0,0.0,97,0.00,,,0.00,pywws,2013-05-29 15:30:00,
2013-05-29 16:35:00,60.1,58.9,29.90,North,-999,0.0,0.0,96,0.00,,,0.00,pywws,2013-05-29 15:35:00,
2013-05-29 16:40:00,59.7,58.6,29.91,North,-999,0.0,0.0,96,0.00,,,0.00,pywws,2013-05-29 15:40:00,
2013-05-29 16:45:00,59.2,58.0,29.89,North,-999,0.0,0.0,96,0.00,,,0.00,pywws,2013-05-29 15:45:00,
2013-05-29 16:50:00,58.8,58.0,29.90,North,-999,0.0,0.0,97,0.00,,,0.00,pywws,2013-05-29 15:50:00,
2013-05-29 17:00:00,58.8,58.3,29.90,North,-999,0.0,0.0,98,0.00,,,0.00,pywws,2013-05-29 16:00:00,
2013-05-29 17:05:00,58.8,58.5,29.90,North,-999,0.0,0.0,99,0.00,,,0.00,pywws,2013-05-29 16:05:00,
2013-05-29 17:10:00,58.8,58.5,29.90,North,-999,0.0,0.0,99,0.00,,,0.00,pywws,2013-05-29 16:10:00,
2013-05-29 17:15:00,58.6,58.4,29.90,North,-999,0.0,0.0,99,0.00,,,0.00,pywws,2013-05-29 16:15:00,
2013-05-29 17:20:00,58.6,58.4,29.90,North,-999,0.0,0.0,99,0.00,,,0.00,pywws,2013-05-29 16:20:00,
2013-05-29 17:25:00,58.5,58.2,29.91,North,-999,0.0,0.0,99,0.00,,,0.00,pywws,2013-05-29 16:25:00,
2013-05-29 17:30:00,58.5,58.2,29.91,North,-999,0.0,0.0,99,0.00,,,0.00,pywws,2013-05-29 16:30:00,
2013-05-29 17:35:00,58.1,57.8,29.91,North,-999,0.0,0.0,99,0.00,,,0.00,pywws,2013-05-29 16:35:00,
2013-05-29 17:40:00,57.9,57.6,29.91,North,-999,0.0,0.0,99,0.00,,,0.00,pywws,2013-05-29 16:40:00,
2013-05-29 17:45:00,57.6,57.3,29.91,North,-999,0.0,0.0,99,0.00,,,0.00,pywws,2013-05-29 16:45:00,
2013-05-29 17:50:00,57.7,57.5,29.91,North,-999,0.0,0.0,99,0.00,,,0.00,pywws,2013-05-29 16:50:00,
2013-05-29 18:00:00,57.7,57.5,29.91,North,-999,0.0,0.7,99,0.00,,,0.00,pywws,2013-05-29 17:00:00,
2013-05-29 18:05:00,58.1,57.8,29.90,North,-999,0.0,0.0,99,0.00,,,0.00,pywws,2013-05-29 17:05:00,
2013-05-29 18:10:00,58.5,58.2,29.90,North,-999,0.0,0.0,99,0.00,,,0.00,pywws,2013-05-29 17:10:00,
2013-05-29 18:15:00,58.5,58.2,29.91,North,-999,0.0,0.0,99,0.00,,,0.00,pywws,2013-05-29 17:15:00,
2013-05-29 18:20:00,58.3,58.0,29.90,North,-999,0.0,0.0,99,0.00,,,0.00,pywws,2013-05-29 17:20:00,
2013-05-29 18:25:00,58.3,58.0,29.90,North,-999,0.0,0.0,99,0.00,,,0.00,pywws,2013-05-29 17:25:00,
2013-05-29 18:30:00,58.3,58.0,29.90,North,-999,0.0,0.0,99,0.00,,,0.00,pywws,2013-05-29 17:30:00,
2013-05-29 18:35:00,58.3,58.0,29.90,North,-999,0.0,0.0,99,0.00,,,0.00,pywws,2013-05-29 17:35:00,
2013-05-29 18:40:00,58.6,58.4,29.90,North,-999,0.0,0.0,99,0.00,,,0.00,pywws,2013-05-29 17:40:00,
2013-05-29 18:45:00,58.8,58.5,29.91,North,-999,0.0,0.0,99,0.00,,,0.00,pywws,2013-05-29 17:45:00,
2013-05-29 18:50:00,59.2,58.9,29.90,North,-999,0.0,0.0,99,0.00,,,0.00,pywws,2013-05-29 17:50:00,
2013-05-29 19:00:00,59.5,59.3,29.90,North,-999,0.0,0.0,99,0.00,,,0.00,pywws,2013-05-29 18:00:00,
2013-05-29 19:05:00,60.3,60.0,29.91,North,-999,0.0,1.6,99,0.00,,,0.00,pywws,2013-05-29 18:05:00,
2013-05-29 19:10:00,60.4,60.2,29.91,North,-999,0.0,0.7,99,0.00,,,0.00,pywws,2013-05-29 18:10:00,
2013-05-29 19:15:00,60.8,60.5,29.90,North,-999,0.0,1.6,99,0.00,,,0.00,pywws,2013-05-29 18:15:00,
2013-05-29 19:20:00,60.8,59.9,29.91,North,-999,0.0,0.7,97,0.00,,,0.00,pywws,2013-05-29 18:20:00,
2013-05-29 19:25:00,60.8,59.7,29.90,North,-999,0.0,0.0,96,0.00,,,0.00,pywws,2013-05-29 18:25:00,
2013-05-29 19:30:00,61.2,59.7,29.91,North,-999,0.0,0.0,95,0.00,,,0.00,pywws,2013-05-29 18:30:00,
2013-05-29 19:35:00,61.7,60.0,29.90,North,-999,0.0,0.7,94,0.00,,,0.00,pywws,2013-05-29 18:35:00,
2013-05-29 19:40:00,61.7,59.7,29.90,North,-999,0.0,0.7,93,0.00,,,0.00,pywws,2013-05-29 18:40:00,
2013-05-29 19:45:00,61.5,59.8,29.90,North,-999,0.0,0.0,94,0.00,,,0.00,pywws,2013-05-29 18:45:00,
2013-05-29 19:50:00,61.5,59.8,29.91,North,-999,0.0,0.7,94,0.00,,,0.00,pywws,2013-05-29 18:50:00,
2013-05-29 20:00:00,61.5,59.5,29.91,North,-999,0.0,0.0,93,0.00,,,0.00,pywws,2013-05-29 19:00:00,
2013-05-29 20:05:00,61.0,59.2,29.91,North,-999,0.0,0.0,94,0.00,,,0.00,pywws,2013-05-29 19:05:00,
2013-05-29 20:10:00,60.4,59.0,29.91,North,-999,0.0,0.0,95,0.00,,,0.00,pywws,2013-05-29 19:10:00,
2013-05-29 20:15:00,60.3,59.1,29.91,North,-999,0.0,0.0,96,0.00,,,0.00,pywws,2013-05-29 19:15:00,
2013-05-29 20:20:00,59.9,58.8,29.91,North,-999,0.0,0.0,96,0.00,,,0.00,pywws,2013-05-29 19:20:00,
2013-05-29 20:25:00,59.7,58.6,29.91,North,-999,0.0,0.0,96,0.00,,,0.00,pywws,2013-05-29 19:25:00,
2013-05-29 20:30:00,59.5,58.7,29.91,North,-999,0.0,0.0,97,0.00,,,0.00,pywws,2013-05-29 19:30:00,
2013-05-29 20:35:00,59.4,58.8,29.91,North,-999,0.0,0.0,98,0.00,,,0.00,pywws,2013-05-29 19:35:00,
2013-05-29 20:40:00,59.2,58.6,29.91,North,-999,0.0,0.0,98,0.00,,,0.00,pywws,2013-05-29 19:40:00,
2013-05-29 20:45:00,58.8,58.3,29.91,North,-999,0.0,0.0,98,0.00,,,0.00,pywws,2013-05-29 19:45:00,
2013-05-29 20:50:00,58.6,58.4,29.91,North,-999,0.0,0.7,99,0.00,,,0.00,pywws,2013-05-29 19:50:00,
2013-05-29 21:00:00,58.5,58.2,29.91,North,-999,0.0,2.2,99,0.00,,,0.00,pywws,2013-05-29 20:00:00,
2013-05-29 21:05:00,58.5,57.9,29.91,North,-999,0.0,0.7,98,0.00,,,0.00,pywws,2013-05-29 20:05:00,
2013-05-29 21:10:00,58.5,57.6,29.91,North,-999,0.0,0.7,97,0.00,,,0.00,pywws,2013-05-29 20:10:00,
2013-05-29 21:15:00,58.3,57.1,29.91,North,-999,0.0,1.6,96,0.00,,,0.00,pywws,2013-05-29 20:15:00,
2013-05-29 21:20:00,58.3,56.9,29.91,North,-999,0.0,0.7,95,0.00,,,0.00,pywws,2013-05-29 20:20:00,
2013-05-29 21:25:00,58.1,56.4,29.91,North,-999,0.0,1.6,94,0.00,,,0.00,pywws,2013-05-29 20:25:00,
2013-05-29 21:30:00,57.9,55.9,29.91,North,-999,0.0,1.6,93,0.00,,,0.00,pywws,2013-05-29 20:30:00,
2013-05-29 21:35:00,57.7,55.7,29.91,North,-999,0.0,0.7,93,0.00,,,0.00,pywws,2013-05-29 20:35:00,
2013-05-29 21:40:00,57.6,55.5,29.91,North,-999,0.0,0.7,93,0.00,,,0.00,pywws,2013-05-29 20:40:00,
2013-05-29 21:45:00,57.4,55.4,29.92,North,-999,0.0,0.7,93,0.00,,,0.00,pywws,2013-05-29 20:45:00,
2013-05-29 21:50:00,57.4,55.4,29.91,North,-999,0.0,0.7,93,0.00,,,0.00,pywws,2013-05-29 20:50:00,
2013-05-29 22:00:00,57.6,55.5,29.91,North,-999,0.0,0.7,93,0.00,,,0.00,pywws,2013-05-29 21:00:00,
2013-05-29 22:05:00,57.6,55.3,29.91,East,90,0.7,1.6,92,0.00,,,0.00,pywws,2013-05-29 21:05:00,
2013-05-29 22:10:00,57.6,55.0,29.91,North,-999,0.0,0.7,91,0.00,,,0.00,pywws,2013-05-29 21:10:00,
2013-05-29 22:15:00,57.4,54.8,29.91,North,-999,0.0,1.6,91,0.00,,,0.00,pywws,2013-05-29 21:15:00,
2013-05-29 22:20:00,57.2,54.6,29.91,North,-999,0.0,1.6,91,0.00,,,0.00,pywws,2013-05-29 21:20:00,
2013-05-29 22:25:00,57.0,54.4,29.91,North,-999,0.0,1.6,91,0.00,,,0.00,pywws,2013-05-29 21:25:00,
2013-05-29 22:30:00,57.0,54.7,29.91,East,90,0.7,1.6,92,0.00,,,0.00,pywws,2013-05-29 21:30:00,
2013-05-29 22:35:00,57.2,54.9,29.91,North,-999,0.0,0.7,92,0.00,,,0.00,pywws,2013-05-29 21:35:00,
2013-05-29 22:40:00,57.2,54.9,29.91,East,90,0.7,2.2,92,0.00,,,0.00,pywws,2013-05-29 21:40:00,
2013-05-29 22:45:00,57.4,55.1,29.91,North,-999,0.0,1.6,92,0.00,,,0.00,pywws,2013-05-29 21:45:00,
2013-05-29 22:50:00,57.4,54.8,29.91,North,-999,0.0,1.6,91,0.00,,,0.00,pywws,2013-05-29 21:50:00,
2013-05-29 23:00:00,57.4,54.8,29.91,North,-999,0.0,1.6,91,0.00,,,0.00,pywws,2013-05-29 22:00:00,
2013-05-29 23:05:00,57.4,54.8,29.91,East,90,0.7,1.6,91,0.00,,,0.00,pywws,2013-05-29 22:05:00,
2013-05-29 23:10:00,57.2,54.3,29.91,North,-999,0.0,0.7,90,0.00,,,0.00,pywws,2013-05-29 22:10:00,
2013-05-29 23:15:00,57.0,53.8,29.91,North,-999,0.0,0.7,89,0.00,,,0.00,pywws,2013-05-29 22:15:00,
2013-05-29 23:20:00,56.8,53.6,29.91,North,-999,0.0,0.7,89,0.00,,,0.00,pywws,2013-05-29 22:20:00,
2013-05-29 23:25:00,56.5,53.3,29.91,North,-999,0.0,0.7,89,0.00,,,0.00,pywws,2013-05-29 22:25:00,
2013-05-29 23:30:00,56.3,53.1,29.91,North,-999,0.0,0.7,89,0.00,,,0.00,pywws,2013-05-29 22:30:00,
2013-05-29 23:35:00,56.1,53.2,29.91,North,-999,0.0,1.6,90,0.00,,,0.00,pywws,2013-05-29 22:35:00,
2013-05-29 23:40:00,55.8,52.9,29.91,North,-999,0.0,0.0,90,0.00,,,0.00,pywws,2013-05-29 22:40:00,
2013-05-29 23:45:00,55.6,52.7,29.91,North,-999,0.0,0.0,90,0.00,,,0.00,pywws,2013-05-29 22:45:00,
2013-05-29 23:50:00,55.2,52.6,29.91,North,-999,0.0,0.0,91,0.00,,,0.00,pywws,2013-05-29 22:50:00,